Regional Weather Roundup
Issued by NWS Little Rock, AR

Home | Current Version | Previous Version | Graphics & Text | Print | Product List | Glossary On
Versions: 1 2 3 4 5 6 7 8 9 10 11 12 13 14 15 16 17 18 19 20 21 22 23 24 25 26 27 28 29 30 31 32 33
000
ASUS44 KLZK 271205
RWRLZK

WEATHER ROUNDUP FOR ARKANSAS
NATIONAL WEATHER SERVICE LITTLE ROCK AR
700 AM CDT THU APR 27 2017

NOTE: "FAIR" INDICATES FEW OR NO CLOUDS BELOW 12,000 FEET WITH NO
SIGNIFICANT WEATHER AND/OR OBSTRUCTIONS TO VISIBILITY.

ARZ001-003-010-029-271300-
NORTHWEST ARKANSAS

CITY           SKY/WX    TMP DP  RH WIND       PRES   REMARKS
FAYETTEVILLE   FOG       37  37 100 CALM      29.77S VSB<1/4
6HR MIN TEMP:  37; 6HR MAX TEMP:  43;

FORT SMITH     CLEAR     45  42  89 SW5       29.79R
6HR MIN TEMP:  44; 6HR MAX TEMP:  48;

HARRISON       CLEAR     41  39  93 W7        29.76R
6HR MIN TEMP:  40; 6HR MAX TEMP:  44;

BENTONVILLE    CLOUDY    39  37  93 CALM      29.77S VSB<1/4
6HR MIN TEMP:  37; 6HR MAX TEMP:  45;

ROGERS         CLEAR     39  39 100 S3        29.78R
6HR MIN TEMP:  38; 6HR MAX TEMP:  43;

SILOAM SPGS    CLOUDY    37  34  87 CALM      29.77S VSB<1/4
6HR MIN TEMP:  36; 6HR MAX TEMP:  43;

HIGHFILL       FOG       38  38 100 CALM      29.77R VSB<1/4
6HR MIN TEMP:  37; 6HR MAX TEMP:  43;

SPRINGDALE     FOG       41  41 100 CALM      29.78R VSB 1/8
$$

ARZ004-005-016-271300-
NORTH CENTRAL ARKANSAS

CITY           SKY/WX    TMP DP  RH WIND       PRES   REMARKS
BATESVILLE     CLEAR    N/A N/A N/A CALM      29.78R
FLIPPIN        CLEAR    N/A N/A N/A S3        29.74R
MTN HOME       CLEAR     42  40  92 CALM      29.75R
6HR MIN TEMP:  42; 6HR MAX TEMP:  46;

$$

ARZ040-041-271300-
WEST CENTRAL ARKANSAS

CITY           SKY/WX    TMP DP  RH WIND       PRES   REMARKS
MENA           PTCLDY    45  45 100 CALM      29.78F
MOUNT IDA      CLEAR     42  40  92 CALM      29.76R
6HR MIN TEMP:  41; 6HR MAX TEMP:  47;

$$

ARZ009-017-025-026-028-271300-
NORTHEAST ARKANSAS

CITY           SKY/WX    TMP DP  RH WIND       PRES   REMARKS
CORNING        CLOUDY    50  46  87 W10       29.76R
JONESBORO      CLOUDY    50  44  80 W8        29.77R
6HR MIN TEMP:  50; 6HR MAX TEMP:  52;

NEWPORT        CLEAR     48  44  86 W8        29.79R
6HR MIN TEMP:  48; 6HR MAX TEMP:  51;

WALNUT RIDGE   CLOUDY    50  39  66 NW12      29.76R
6HR MIN TEMP:  50; 6HR MAX TEMP:  52;

BLYTHEVILLE    CLOUDY    51  46  83 NW9       29.75R
6HR MIN TEMP:  50; 6HR MAX TEMP:  54; 6HR PCP:  0.05;

$$

ARZ022-023-033-042-044-271300-
CENTRAL ARKANSAS

CITY           SKY/WX    TMP DP  RH WIND       PRES   REMARKS
LITTLE ROCK    MOCLDY    45  45 100 W5        29.79R
6HR MIN TEMP:  44; 6HR MAX TEMP:  51;

N LITTLE ROCK    N/A     46  44  92 CALM      29.79R
6HR MIN TEMP:  45; 6HR MAX TEMP:  50;

JACKSONVILLE   CLEAR     46  46  99 W3        29.78
6HR MIN TEMP:  45; 6HR MAX TEMP:  52;

CONWAY           N/A     46  45  93 W6        29.78R
SEARCY         CLEAR     47  47 100 CALM      29.81R
6HR MIN TEMP:  46; 6HR MAX TEMP:  52;

HOT SPRINGS    CLEAR     46  44  93 CALM      29.79R
6HR MIN TEMP:  44; 6HR MAX TEMP:  50;

RUSSELLVILLE   CLOUDY    44  43  96 CALM      29.79R
6HR MIN TEMP:  42; 6HR MAX TEMP:  50;

CLINTON          N/A     43  43 100 CALM      29.80R FOG
$$

ARZ036-271300-
EAST ARKANSAS

CITY           SKY/WX    TMP DP  RH WIND       PRES   REMARKS
WEST MEMPHIS   CLOUDY    51  47  86 NW5       29.76R
6HR MIN TEMP:  51; 6HR MAX TEMP:  57; 6HR PCP: TRACE;

$$

ARZ050-053-066-070-073-271300-
SOUTHWEST ARKANSAS

CITY           SKY/WX    TMP DP  RH WIND       PRES   REMARKS
ARKADELPHIA    FAIR      47  46  97 NW3       29.80R
6HR MIN TEMP:  47; 6HR MAX TEMP:  52;

CAMDEN         CLEAR     46  45  93 CALM      29.80F
TEXARKANA      CLEAR     45  45 100 CALM      29.81R
6HR MIN TEMP:  44; 6HR MAX TEMP:  52;

EL DORADO      CLEAR     47  47 100 CALM      29.81R
6HR MIN TEMP:  47; 6HR MAX TEMP:  53;

DE QUEEN       PTCLDY    44  44 100 CALM      29.79R
6HR MIN TEMP:  43; 6HR MAX TEMP:  48;

$$

ARZ056-057-069-271300-
SOUTHEAST ARKANSAS

CITY           SKY/WX    TMP DP  RH WIND       PRES   REMARKS
PINE BLUFF     CLEAR     47  46  97 W3        29.81R
6HR MIN TEMP:  47; 6HR MAX TEMP:  53;

STUTTGART      CLEAR     48  37  66 NW8       29.81R
6HR MIN TEMP:  48; 6HR MAX TEMP:  54;

MONTICELLO     CLEAR     49  47  93 CALM      29.81R
6HR MIN TEMP:  48; 6HR MAX TEMP:  55;


$$






USA.gov is the U.S. government's official web portal to all federal, state and local government web resources and services.